Theta_e
317 318 317 316 316 317 316 315 315 315 314 314 315 314 313 313 312 315 317 314 314 315 315 316 316 316 317 316 317 317 317 317 317 317 318 318 317 318 318 318 319 319 320 323 321 318 317 316 315 315 315 315 316 316 317 318 319 319 318 318 317 317 317 317 317 315 314 314 316 317 318 319 320 322 324 324 325 326 327 328 328 329 329 328 329 329
315 316 316 317 317 317 316 316 316 314 314 314 314 314 314 314 314 316 317 314 314 314 314 316 316 317 317 317 317 316 317 317 317 318 318 318 318 318 319 319 320 319 322 324 321 318 317 315 315 314 314 314 315 316 316 317 318 318 318 317 317 317 316 317 316 314 313 313 316 317 317 318 318 321 324 324 325 325 326 327 328 328 327 327 329 329
315 315 316 316 316 316 315 316 315 314 315 315 315 315 314 315 315 315 315 314 314 314 314 316 316 316 316 316 316 316 316 317 317 317 318 318 318 318 318 319 320 320 321 323 321 319 317 315 315 314 313 314 314 315 315 316 317 317 317 317 317 317 316 316 314 314 313 312 315 317 317 318 317 320 323 323 324 325 326 326 326 326 326 326 327 328
314 314 315 315 314 314 314 315 315 315 316 316 316 314 314 317 315 312 314 315 314 314 314 316 316 316 317 316 317 317 317 317 318 318 319 319 319 319 319 319 320 320 321 321 321 320 318 316 315 313 313 313 313 314 315 316 316 317 317 316 317 317 315 314 313 313 312 313 315 316 317 317 316 319 321 322 323 324 323 323 323 324 324 324 325 326
314 314 313 314 314 314 315 315 316 315 314 316 318 315 314 317 315 313 314 315 315 315 315 316 315 315 317 318 319 319 319 319 319 319 319 320 320 320 320 321 320 320 321 321 321 320 318 316 315 314 313 313 313 314 315 315 316 316 316 316 316 316 315 314 313 312 313 314 315 315 315 315 315 317 319 320 321 321 320 321 322 323 323 323 324 325
315 313 313 315 314 315 316 315 316 316 313 315 319 318 315 315 317 317 317 316 313 313 317 318 313 311 315 318 319 319 319 319 319 319 318 319 320 320 320 321 321 321 321 320 320 319 319 317 315 314 313 313 313 313 314 315 315 316 316 315 315 316 315 314 313 312 313 314 313 314 314 313 314 315 317 318 319 319 319 320 322 323 323 323 323 324
315 312 314 317 316 318 318 315 317 318 312 312 318 320 317 317 318 317 318 316 312 313 317 317 312 311 313 314 316 317 317 317 318 319 319 319 319 320 321 321 321 321 321 321 320 318 318 317 316 315 313 313 313 313 314 315 315 315 315 315 315 315 314 313 313 311 312 312 312 313 314 314 314 314 315 317 318 318 318 320 321 322 323 323 323 323
315 313 315 318 318 319 317 316 319 318 313 315 318 319 318 318 319 319 318 316 315 317 317 317 316 315 314 315 316 317 316 317 318 318 319 319 320 320 320 321 321 321 321 321 321 318 317 317 316 315 314 313 313 313 314 314 315 315 315 315 315 314 313 312 312 311 311 312 312 313 314 314 315 315 315 316 316 317 318 319 319 321 322 322 322 322
316 316 317 317 317 317 317 318 320 317 315 318 318 318 319 319 320 320 319 316 318 319 316 318 320 317 315 316 316 319 316 316 318 318 318 318 320 321 320 320 320 319 320 319 319 318 317 317 316 315 314 313 312 313 314 314 314 314 314 314 314 314 313 312 311 311 311 311 311 312 313 314 314 315 315 315 315 316 317 318 318 319 321 321 320 321
316 314 315 317 317 317 317 316 318 318 318 317 317 318 319 319 319 319 319 317 318 318 316 320 320 314 312 312 315 319 316 316 317 316 318 319 320 322 321 321 320 318 319 318 317 316 317 316 314 313 313 312 312 312 313 314 314 314 314 314 314 313 312 312 311 310 310 311 311 312 312 313 314 315 315 314 315 316 316 317 317 318 319 319 320 320
313 311 313 316 316 316 315 313 314 317 317 317 318 319 319 319 319 318 318 317 316 315 316 320 319 313 311 311 314 318 317 317 318 315 317 319 320 322 321 321 320 318 319 318 316 315 314 313 311 311 311 311 311 312 313 313 313 313 313 313 314 313 312 311 310 310 310 311 312 312 312 313 314 314 314 314 314 314 314 315 316 317 318 319 319 319
315 314 314 315 314 314 315 314 314 315 317 319 319 317 316 317 318 317 318 318 315 314 316 318 318 315 311 311 314 317 316 316 317 316 316 317 319 322 322 321 319 318 318 318 317 316 314 311 310 310 310 310 311 311 312 313 313 313 313 313 313 312 311 310 309 309 310 311 312 312 312 313 313 313 313 314 313 311 312 315 316 316 317 318 318 318
317 317 316 315 312 314 316 316 315 315 317 319 317 315 314 314 315 316 318 319 316 314 316 316 318 318 313 313 315 316 316 316 316 317 318 317 318 320 322 322 321 320 319 317 318 317 315 313 312 311 310 310 310 311 311 312 312 312 312 312 313 312 311 309 308 308 309 310 311 312 312 312 312 313 313 314 313 311 312 315 316 315 316 317 317 317
317 318 318 316 313 313 316 316 315 315 316 317 316 315 313 312 314 316 317 317 315 315 315 314 316 317 314 314 317 316 316 317 317 317 319 319 318 319 320 321 321 321 319 318 318 318 317 316 315 313 311 310 310 310 311 312 312 312 312 312 312 312 311 309 308 308 308 309 310 311 311 311 311 312 312 312 312 311 312 314 316 316 316 317 317 317
316 317 317 317 315 314 316 317 316 316 316 317 316 316 314 311 312 314 314 314 314 315 313 313 316 315 313 315 317 317 316 317 317 317 317 318 318 318 319 319 319 319 318 318 318 318 317 317 316 315 312 311 311 311 311 312 312 311 311 311 311 311 311 309 307 307 307 307 308 309 310 311 310 310 311 311 310 310 312 314 315 316 317 317 317 318
315 316 318 317 315 315 317 318 317 317 316 317 318 318 317 314 312 312 313 314 314 315 315 315 316 315 314 315 316 316 316 316 316 317 318 319 319 319 319 319 319 319 318 318 317 317 317 316 316 314 312 311 311 311 311 311 311 311 311 311 311 311 311 310 308 307 306 306 306 307 309 311 310 309 310 310 310 310 312 313 314 314 315 314 315 317
314 316 318 316 315 314 315 317 318 317 317 317 318 319 318 317 315 313 314 314 313 314 314 315 316 314 313 314 315 315 314 315 315 316 317 319 320 322 324 326 325 322 320 319 319 318 317 316 314 312 312 311 311 311 311 311 311 311 311 311 311 311 311 311 309 307 306 305 306 306 307 309 310 309 309 309 310 311 311 312 312 312 312 309 310 313
315 315 316 315 316 315 312 315 317 316 317 318 318 317 316 316 315 313 314 315 315 315 314 313 314 313 311 312 315 315 315 315 315 315 316 317 319 322 326 329 329 324 321 320 319 318 317 315 313 312 311 311 310 311 311 311 311 311 310 311 310 310 310 310 309 307 306 305 306 306 306 307 308 309 309 309 310 311 311 311 310 310 310 308 307 310
315 315 315 313 315 315 312 313 316 315 315 316 317 317 316 316 315 313 314 315 316 317 316 314 313 313 312 312 313 314 315 315 315 315 316 315 316 319 321 325 327 323 322 323 320 318 316 314 313 311 310 310 310 310 311 311 311 310 310 310 310 310 310 310 309 307 306 305 306 306 305 305 306 307 308 308 309 309 309 310 310 309 309 308 308 309
314 314 315 312 313 315 313 314 316 316 315 314 315 316 316 317 315 314 315 314 314 315 316 316 314 313 314 314 314 314 314 315 314 315 316 316 317 318 320 324 327 324 323 324 323 320 317 314 313 311 310 309 309 309 310 310 310 310 310 310 310 310 309 309 309 307 305 305 305 305 305 305 305 306 307 308 308 308 309 310 310 310 309 308 308 308
313 313 314 313 312 314 315 315 316 317 316 314 313 315 316 316 315 315 316 315 314 315 315 315 314 312 313 315 315 315 315 315 315 315 316 318 318 319 322 326 326 324 321 322 322 321 317 314 312 310 309 308 308 309 309 310 310 310 310 310 309 309 309 309 309 308 306 304 304 304 304 304 305 305 306 307 309 309 310 310 309 309 309 308 306 305
314 312 314 315 314 315 316 317 316 317 317 315 314 314 315 316 316 316 317 316 315 316 315 315 315 314 314 316 315 315 315 314 316 317 317 318 319 320 326 328 325 323 321 320 320 319 317 313 310 309 308 307 307 308 308 309 310 310 309 309 309 309 309 308 308 308 306 305 304 303 303 304 304 304 304 305 306 306 307 309 308 307 307 305 304 304
315 314 314 316 317 317 316 316 315 316 318 317 316 316 315 316 316 316 317 317 316 316 316 316 317 316 315 316 316 315 317 318 319 320 319 319 319 321 326 325 323 321 320 318 318 316 315 313 310 308 307 307 307 307 307 308 309 309 309 309 308 308 308 308 308 308 307 305 304 302 302 303 303 303 303 303 303 302 303 307 307 306 305 304 303 303
315 315 314 315 316 317 316 315 314 314 316 317 318 317 317 317 317 316 316 316 317 317 316 316 317 317 316 319 319 318 320 323 322 320 318 319 321 322 323 321 321 321 319 317 316 314 312 311 309 308 307 306 306 306 306 307 308 309 309 308 308 308 308 307 307 307 306 305 303 302 302 302 302 302 302 301 301 300 301 304 305 304 303 302 301 301
315 315 315 315 316 317 318 317 316 315 315 316 317 317 317 318 318 318 316 315 317 318 318 317 317 316 316 320 320 317 318 319 318 318 317 319 321 321 321 320 320 320 319 317 315 314 313 310 309 308 307 307 307 306 306 306 307 308 308 308 308 307 307 307 306 306 305 304 303 302 301 301 301 301 301 300 300 300 301 302 302 301 301 300 300 301
316 317 315 315 317 318 319 320 319 317 315 315 316 317 318 318 318 319 317 317 318 319 319 318 316 315 315 317 317 315 316 316 316 317 317 317 318 318 319 320 319 319 318 316 315 316 315 313 311 309 308 307 307 307 306 306 306 307 307 307 307 307 306 306 306 306 304 303 302 301 301 301 301 301 301 300 299 300 301 300 300 300 300 300 300 300
317 318 317 315 317 317 318 320 320 318 317 316 317 317 318 318 319 319 318 318 318 318 318 318 317 316 316 315 315 316 316 316 315 316 316 317 318 319 320 320 318 317 316 315 315 317 317 315 313 310 308 307 307 307 306 306 306 306 306 306 306 306 306 305 305 305 304 302 301 301 300 300 300 300 300 300 299 300 300 299 298 299 299 299 298 298
319 317 316 317 317 316 316 318 319 318 317 317 318 318 318 318 320 320 319 317 317 318 318 317 317 318 317 315 315 316 316 316 316 315 316 317 319 321 322 320 318 317 317 316 315 315 315 316 314 312 309 308 307 306 306 305 305 305 305 305 305 305 305 304 304 304 303 302 301 300 300 299 299 299 299 299 299 299 298 298 297 297 298 298 296 297
319 316 317 319 318 317 317 317 317 317 318 317 318 318 318 319 320 320 319 318 317 318 318 317 318 319 317 316 316 316 316 316 316 316 316 316 319 321 321 320 320 320 319 318 318 317 315 315 315 315 312 308 307 306 305 304 304 304 304 304 304 304 304 303 303 303 302 301 301 300 300 299 298 298 298 298 297 297 297 297 297 296 297 297 296 296
318 317 317 318 318 318 318 317 317 317 318 318 318 317 318 318 319 319 318 317 318 318 317 317 318 318 317 316 316 316 316 316 316 316 316 317 319 320 319 320 321 321 320 320 320 320 318 316 316 316 314 310 307 306 305 304 303 303 303 303 303 303 303 303 303 302 301 301 300 300 299 299 297 297 297 297 297 296 297 296 295 295 295 295 295 295
317 318 318 316 317 318 317 317 318 319 319 320 319 318 318 318 319 320 319 318 318 319 318 318 319 318 316 316 316 316 316 317 317 316 316 317 317 317 317 318 319 319 320 320 320 320 319 318 316 316 315 312 309 307 306 304 303 303 303 302 303 303 302 302 302 301 301 300 300 299 299 298 297 297 297 297 296 296 296 295 294 294 293 293 293 293
315 317 317 316 317 319 318 317 318 318 319 320 320 319 319 318 318 319 319 319 318 319 319 319 319 318 317 316 316 316 316 317 317 317 317 317 317 317 316 316 317 317 318 318 318 319 319 319 317 317 315 312 310 308 306 305 304 303 302 302 302 302 302 301 301 301 300 300 299 299 298 297 296 296 296 296 296 296 295 294 293 292 292 291 291 291
314 315 316 317 318 319 318 318 318 319 320 321 320 319 318 318 318 318 318 318 318 318 319 319 319 317 316 316 317 317 317 317 317 317 318 318 318 317 317 316 316 317 317 317 317 318 318 319 318 317 315 312 310 309 307 306 305 303 303 302 302 302 301 300 300 300 299 299 299 298 297 297 296 295 295 295 295 295 294 293 292 291 291 291 291 290
314 316 316 317 318 318 319 318 319 320 321 322 320 318 318 318 319 319 319 318 318 318 318 317 316 316 317 317 317 317 317 317 317 317 318 318 318 318 317 316 316 316 316 317 317 317 317 318 318 317 316 313 311 310 309 308 306 304 303 302 302 301 300 300 299 299 299 299 298 297 297 296 295 294 294 294 294 293 292 291 291 290 290 290 289 288
313 314 315 316 317 318 318 318 319 321 321 320 318 317 317 317 318 319 319 318 318 318 318 317 316 316 316 316 317 317 317 317 317 317 317 317 317 317 317 317 317 317 316 317 317 317 317 317 317 316 314 313 312 310 308 307 304 303 302 301 301 300 299 299 298 298 298 298 297 296 296 295 294 294 293 293 293 292 291 291 290 290 289 289 289 288
314 314 314 316 316 317 317 318 319 321 319 317 317 316 316 317 317 319 320 319 317 317 318 317 317 316 316 317 316 316 317 317 317 317 316 316 316 317 317 316 316 316 316 316 317 317 317 317 316 315 313 312 310 308 306 304 303 302 301 300 300 299 298 298 297 297 297 296 296 295 295 294 294 293 293 292 292 291 290 290 289 289 288 288 287 287
314 315 314 315 315 316 317 317 317 318 318 317 317 316 316 317 317 318 319 319 316 316 317 317 317 317 317 317 317 317 317 317 317 317 316 316 317 317 317 316 316 316 316 316 316 316 316 315 314 313 311 310 307 305 304 303 301 300 300 299 298 297 297 296 296 296 296 295 295 294 294 294 293 292 292 291 290 290 289 289 288 288 287 287 286 286
315 315 315 315 316 315 316 316 317 317 317 316 316 315 315 316 316 318 319 319 317 317 317 317 317 317 317 318 318 318 318 318 318 317 316 316 317 317 317 316 316 316 315 314 314 314 313 311 309 308 307 306 304 303 302 301 300 299 298 297 297 296 296 295 295 295 295 295 294 294 293 293 293 292 291 290 290 289 288 288 287 287 287 286 286 285
315 315 315 315 316 316 316 316 316 316 316 315 316 316 315 316 316 317 320 320 318 317 317 317 317 318 318 318 318 318 319 319 318 317 316 317 317 317 317 316 315 314 313 312 311 310 308 305 304 304 303 302 301 300 299 299 298 298 297 296 295 295 295 295 295 295 294 294 294 293 293 293 292 292 291 290 289 289 288 287 287 287 286 286 286 285
315 315 314 315 316 316 316 316 315 315 315 316 316 316 315 316 316 319 320 320 317 316 317 316 316 317 317 318 318 318 319 318 318 317 317 316 315 315 315 314 313 312 310 308 306 304 303 302 301 300 299 299 298 298 297 297 296 296 295 295 294 294 294 294 294 294 293 293 293 292 292 292 292 291 291 290 289 288 288 287 287 286 286 285 285 285
314 314 314 315 316 316 316 316 316 315 315 315 315 314 315 317 318 319 319 318 315 316 317 316 317 317 317 317 317 317 317 317 317 317 315 313 312 312 311 307 304 303 302 302 301 300 300 299 299 298 298 297 297 296 295 295 295 295 294 294 293 293 293 293 293 293 292 292 292 292 292 291 291 291 290 290 289 288 287 287 287 286 286 285 285 285
314 314 314 314 315 315 315 316 315 315 316 314 314 314 314 316 318 318 317 316 317 318 317 317 318 317 317 317 317 317 317 316 315 315 312 310 309 310 308 304 301 300 298 297 297 297 297 296 296 296 295 294 294 294 294 294 294 293 293 293 293 293 293 292 292 292 292 291 291 291 291 290 290 290 289 289 288 287 286 286 286 285 285 284 284 284
313 314 313 314 315 315 315 316 316 317 317 314 314 315 314 314 315 314 313 315 318 318 317 317 317 316 317 317 317 317 316 315 314 312 310 308 306 305 304 303 302 300 298 296 295 295 295 295 294 293 292 292 292 292 293 294 293 293 292 292 292 292 291 291 291 291 291 291 291 290 290 289 289 289 289 288 288 287 286 285 285 284 284 284 283 283
312 312 311 312 314 315 315 315 315 315 313 310 310 311 311 310 310 309 309 310 313 313 312 311 312 313 314 315 316 316 314 313 312 310 309 308 306 303 301 300 299 298 297 295 294 293 293 294 293 292 291 291 291 291 292 293 292 292 292 291 291 291 291 291 291 291 290 290 290 289 288 288 288 288 288 287 287 286 285 284 284 284 283 283 283 282
310 310 309 310 312 313 313 313 312 311 309 307 306 307 307 307 307 307 307 308 309 309 308 307 308 308 309 310 312 312 311 310 309 308 307 307 305 302 300 298 297 297 296 294 293 292 292 293 292 291 290 290 290 291 292 292 292 291 290 290 290 291 291 291 290 290 289 289 288 288 287 287 287 287 287 287 286 286 285 284 283 283 283 283 283 282
308 308 307 308 309 309 310 311 310 309 309 308 307 307 308 308 308 308 308 308 308 308 307 307 307 306 306 306 307 308 309 308 307 306 305 305 303 301 299 297 296 295 294 293 292 291 291 292 291 290 290 290 290 290 291 291 292 291 290 290 290 291 291 290 290 289 288 287 287 287 287 287 286 286 286 286 286 285 285 284 284 283 283 283 283 283
307 307 307 307 307 307 308 308 306 305 306 305 304 306 308 309 310 310 309 309 309 308 307 307 307 306 305 304 304 305 306 307 307 306 305 304 303 301 299 297 296 294 293 292 291 290 290 290 290 290 289 289 289 289 289 290 291 291 291 290 291 291 290 290 289 288 287 287 286 286 286 286 285 285 285 285 285 285 285 284 284 284 284 284 284 284
304 305 304 304 304 304 304 304 303 303 303 303 303 305 306 307 309 310 309 308 307 306 305 306 305 305 305 304 304 304 305 305 306 305 305 305 304 302 299 297 296 294 292 291 290 290 290 290 290 289 288 287 287 288 288 289 289 290 291 290 290 290 289 288 288 287 286 286 286 286 286 286 285 285 285 285 285 285 284 285 284 284 284 285 285 285
301 301 301 301 301 301 301 301 301 302 303 303 304 305 305 306 307 308 307 307 306 305 305 305 305 305 304 304 304 304 304 305 305 304 305 305 305 304 301 297 294 293 291 290 289 289 289 290 289 288 287 286 286 287 288 288 289 290 290 290 289 289 289 288 287 286 286 286 285 285 285 285 285 285 285 285 285 285 285 285 285 285 284 284 285 285
300 300 300 301 300 300 300 300 301 301 301 302 303 303 303 305 306 307 307 307 306 306 306 306 306 305 305 304 304 304 304 304 303 304 304 304 305 304 301 296 293 291 290 289 288 288 289 289 288 287 286 285 286 286 287 287 288 289 289 289 288 289 289 288 287 286 285 285 285 285 285 285 285 285 285 285 285 284 284 284 284 284 284 284 284 285
299 299 299 299 300 299 299 299 300 300 300 301 302 302 303 304 306 307 307 306 306 306 306 306 306 306 305 305 304 303 303 303 302 301 302 302 301 299 296 293 292 290 289 288 288 288 288 288 287 286 285 285 285 286 287 287 287 288 288 288 288 289 289 288 287 286 285 285 285 285 285 285 285 285 284 284 284 283 283 283 283 283 284 284 284 284
Wind_Speed
2 3 5 6 6 7 8 5 0 3 4 3 2 2 4 3 2 3 5 4 0 4 7 10 12 15 14 14 15 14 14 15 15 14 13 12 11 11 12 13 13 13 11 8 11 14 15 16 17 17 17 18 19 19 21 23 23 22 22 21 22 24 23 21 21 24 22 18 19 18 21 25 26 29 30 27 26 26 27 27 26 26 25 25 27 29
2 5 7 5 2 2 3 2 1 1 2 3 3 3 3 4 2 3 5 2 1 2 6 8 11 15 14 13 14 14 15 16 16 15 15 15 13 11 12 15 13 12 8 8 11 13 15 15 16 17 17 17 19 20 21 23 23 23 22 22 22 22 23 23 23 25 24 22 22 19 19 20 21 29 32 28 28 28 28 28 27 26 25 25 27 29
4 7 5 3 5 5 4 2 3 4 4 3 3 4 3 2 1 3 4 2 2 2 6 7 10 14 15 14 15 16 16 16 15 15 15 14 13 12 13 14 12 10 9 9 10 12 15 16 16 16 16 17 19 19 20 21 22 22 22 22 22 22 25 26 26 27 25 23 20 16 16 16 17 27 30 28 29 29 29 29 27 26 26 28 29 30
5 4 2 5 5 4 3 3 5 4 4 5 4 4 3 1 1 1 2 1 3 4 7 8 8 12 15 15 15 16 16 16 14 13 13 12 12 14 13 11 11 11 11 10 10 10 13 15 16 16 15 16 17 17 19 21 21 22 22 23 22 22 25 27 27 27 23 19 18 17 17 17 18 24 27 27 27 28 28 27 25 25 26 28 29 29
4 2 2 3 4 5 4 5 6 5 5 6 6 6 4 1 1 1 2 2 5 6 5 7 7 9 11 11 11 8 7 10 11 10 11 11 12 13 12 11 11 12 11 10 9 7 10 13 15 15 15 15 16 18 19 21 22 22 22 22 21 20 23 25 26 26 21 19 21 22 21 19 19 22 25 26 27 27 26 25 25 24 25 26 27 27
3 4 3 5 4 5 5 5 7 6 5 6 7 8 8 5 2 2 3 4 5 3 2 3 6 5 5 8 9 5 4 7 8 10 11 11 11 11 10 10 11 11 10 9 8 7 8 10 13 14 15 16 17 19 20 21 22 21 20 21 20 19 20 21 23 25 22 22 23 25 25 22 21 21 25 28 29 29 27 25 25 25 25 26 26 26
2 3 3 5 6 5 5 5 7 7 6 4 3 3 6 5 2 2 3 2 4 3 1 1 5 6 6 11 13 11 11 13 10 11 12 10 10 10 9 9 9 8 8 7 7 7 7 9 10 12 15 17 17 17 18 18 20 20 19 19 20 18 18 20 22 24 23 22 23 26 27 26 24 22 24 27 28 29 28 26 26 26 26 27 27 27
5 6 4 5 6 6 5 5 6 8 7 2 1 3 0 2 2 2 3 3 3 5 3 5 4 7 7 11 14 13 14 15 12 12 12 11 11 11 9 7 7 6 5 4 5 6 7 8 10 11 13 15 15 15 16 17 18 20 18 18 20 18 17 20 23 25 23 20 22 27 26 24 24 21 19 23 25 25 26 27 27 27 28 29 29 29
4 7 8 9 7 6 5 0 4 10 6 1 2 3 4 3 1 1 2 4 2 5 5 6 5 6 7 7 9 9 11 13 12 11 12 10 9 7 4 3 3 2 2 3 3 4 5 6 7 8 9 11 12 13 15 16 16 18 18 18 19 18 17 20 24 26 26 22 21 25 24 20 20 19 17 19 22 23 25 27 28 29 30 31 31 30
2 2 4 7 7 5 3 5 3 5 3 3 4 5 6 4 3 1 2 3 2 5 6 6 9 6 8 6 7 5 6 10 10 9 8 4 3 3 2 2 2 2 2 2 2 2 2 3 3 4 6 8 10 12 13 14 15 16 17 18 19 19 17 18 23 28 28 27 24 23 25 22 18 19 19 18 21 23 25 27 28 29 30 31 30 29
3 2 1 3 2 1 5 7 5 3 4 7 7 5 4 3 2 0 2 1 3 7 4 6 11 6 7 4 7 4 3 5 7 5 3 4 6 5 4 3 3 3 2 2 2 3 3 4 4 4 6 7 9 11 12 14 14 16 17 18 19 19 17 17 22 27 28 30 30 27 27 26 21 22 23 22 23 25 26 27 28 29 29 29 28 28
3 2 1 1 0 2 6 6 5 4 3 5 4 4 3 2 2 2 2 2 5 6 0 2 4 5 7 4 4 2 2 2 3 3 2 3 4 5 5 5 4 3 3 3 3 4 4 4 5 6 7 9 10 11 13 14 14 15 16 17 18 18 17 16 19 25 29 31 33 31 29 26 22 23 26 27 26 26 27 29 29 29 29 28 28 28
3 5 4 3 0 4 6 5 4 2 2 4 4 6 4 3 3 5 5 4 6 4 2 2 1 4 11 9 3 3 4 4 5 5 6 6 6 6 4 5 5 4 4 3 3 4 4 5 6 7 9 10 11 12 13 14 14 14 15 16 17 18 18 17 18 23 28 31 33 34 32 26 23 24 27 29 28 27 28 30 30 30 29 29 29 30
3 3 5 5 1 5 8 6 5 4 5 7 8 7 6 5 5 7 6 5 5 2 2 1 0 4 10 9 7 10 10 8 7 6 7 7 8 8 5 3 3 4 5 4 4 4 4 5 6 8 9 10 11 12 13 14 15 15 15 16 17 18 17 17 18 21 25 29 31 32 32 26 23 26 28 29 29 29 30 31 31 31 30 30 31 32
7 4 7 10 5 8 11 8 6 7 8 10 8 7 7 6 7 7 5 5 5 1 1 2 2 5 6 3 2 4 5 5 5 5 5 7 6 5 5 5 5 5 6 5 5 6 6 6 7 8 9 10 11 12 13 15 16 16 16 17 18 18 19 18 18 20 21 24 27 30 32 29 25 26 29 29 28 27 29 29 29 30 31 32 33 34
9 6 7 7 5 14 14 7 6 7 7 7 5 6 8 5 6 5 1 1 1 2 2 4 4 6 5 7 9 8 8 7 7 6 6 6 4 3 4 6 6 5 5 6 6 8 8 7 7 8 9 10 11 12 14 15 16 17 16 17 18 19 20 20 19 19 19 20 23 28 33 33 29 27 28 30 28 27 27 28 28 30 32 33 33 34
7 3 5 4 4 11 8 2 4 3 3 5 5 6 3 2 3 4 1 3 1 5 5 5 6 8 8 13 13 13 14 13 11 11 9 7 4 4 4 6 5 4 4 4 6 6 6 6 8 9 10 11 12 13 15 15 16 17 17 17 18 19 19 20 19 19 18 19 22 27 31 33 33 32 31 31 31 31 30 29 29 30 31 31 32 33
5 2 2 3 4 5 1 2 1 2 1 3 5 5 2 4 2 3 4 2 3 8 6 6 11 10 7 9 4 5 8 8 8 9 8 8 7 6 7 6 4 4 4 5 5 5 4 6 8 10 10 11 13 13 15 16 16 17 18 17 18 19 19 20 19 19 19 19 21 24 28 31 33 34 33 33 33 33 31 30 30 30 30 30 31 32
4 4 1 0 1 3 3 1 3 1 1 1 1 1 1 2 4 5 5 5 6 8 6 8 13 10 9 11 7 6 9 8 7 8 8 9 9 7 8 5 4 6 4 4 4 5 5 6 7 9 9 9 11 12 13 15 15 16 17 17 17 18 19 19 19 19 19 19 20 21 24 29 32 33 33 33 32 32 30 29 29 29 29 30 31 31
3 6 3 1 1 3 5 5 7 5 3 1 3 2 1 2 4 5 5 5 6 8 7 8 10 8 9 11 12 15 15 13 11 9 8 9 9 8 6 2 3 5 5 4 5 5 5 6 6 7 8 9 11 11 12 13 15 15 16 16 16 17 18 19 19 19 19 20 21 21 22 27 31 32 33 33 32 30 29 29 28 28 29 29 30 31
4 5 5 1 0 3 5 8 10 9 8 5 5 6 5 3 1 2 4 5 6 7 7 8 8 8 8 7 11 13 12 10 9 6 5 5 7 7 4 2 1 2 4 5 5 5 5 6 6 7 7 9 10 11 12 14 15 16 16 17 18 18 19 20 21 21 20 20 22 22 24 28 30 31 32 33 33 32 31 30 29 28 29 28 28 30
6 6 6 4 4 7 6 5 6 7 8 9 9 9 10 8 5 4 7 5 4 4 5 6 7 9 9 6 7 10 9 7 5 5 5 5 6 7 2 1 1 2 3 4 3 3 4 5 6 7 8 9 10 11 13 14 15 17 18 18 19 20 20 21 21 21 21 20 22 23 25 29 31 31 31 31 31 31 31 31 30 29 29 28 28 29
4 4 7 6 5 6 3 3 2 1 2 5 7 8 9 9 8 8 8 4 3 3 2 4 6 10 12 7 5 7 5 3 3 3 4 6 6 5 2 1 2 2 3 2 2 2 3 5 6 6 7 8 9 11 12 14 15 17 18 19 20 20 20 20 20 20 20 20 21 22 24 28 31 30 30 29 28 28 29 31 31 30 30 29 28 29
2 3 7 7 5 3 4 4 3 2 1 5 6 4 5 7 8 7 4 1 3 5 4 6 8 11 12 5 2 2 1 1 1 2 4 5 4 4 4 3 3 3 3 2 0 1 2 4 5 5 7 9 10 11 13 15 15 16 18 20 20 20 20 20 19 19 20 21 22 22 23 27 30 30 29 28 28 28 29 30 30 30 30 30 29 29
4 4 6 6 6 5 4 4 3 2 3 5 7 6 7 8 7 2 0 1 4 7 9 9 8 10 9 1 3 1 2 3 5 4 3 4 4 5 5 4 3 3 3 3 3 3 3 3 4 5 7 9 10 12 13 15 16 17 19 21 21 20 19 20 20 20 21 22 23 23 24 27 29 30 29 28 28 28 29 29 30 29 30 30 29 29
5 4 6 7 8 8 7 4 3 4 5 4 7 11 13 14 12 6 2 4 8 9 11 10 9 12 15 9 4 4 4 5 6 4 4 5 5 6 5 4 3 3 4 5 5 5 4 4 4 5 8 9 10 12 13 14 16 17 19 21 21 21 20 21 21 21 21 23 23 24 26 28 29 30 30 29 29 30 30 29 29 29 29 30 30 29
2 2 6 10 11 10 8 2 3 5 7 7 10 13 13 14 15 10 5 7 10 10 11 13 12 16 21 21 17 11 6 5 6 8 8 6 4 4 4 3 2 2 4 5 6 6 6 5 6 7 9 11 11 13 14 15 16 18 20 20 20 21 21 22 22 22 22 23 23 24 27 28 29 30 31 31 30 30 30 30 29 29 29 30 30 29
2 4 9 12 13 14 13 6 2 3 5 8 10 11 12 12 12 10 10 12 12 10 11 14 14 17 21 23 23 19 12 10 10 11 11 9 5 3 2 2 3 4 5 6 6 7 8 7 6 7 9 12 13 15 17 17 17 20 22 20 20 21 21 22 22 22 22 22 23 25 25 26 26 28 31 31 30 30 31 31 30 29 28 29 29 30
2 4 7 8 11 14 15 11 7 7 8 8 9 10 11 13 13 13 15 18 16 12 12 14 15 17 19 23 24 19 14 16 16 14 13 12 7 4 3 3 4 6 7 7 8 8 8 8 8 8 9 12 15 17 18 18 18 21 22 20 20 21 22 22 22 23 23 23 25 25 24 24 25 26 28 29 29 29 30 31 31 29 29 29 30 30
2 3 5 6 8 13 15 14 12 13 13 12 12 12 10 11 15 17 18 20 20 17 16 18 21 22 21 23 24 20 16 17 17 15 15 14 9 6 6 6 6 8 10 10 9 9 10 11 11 11 9 12 17 19 19 19 20 22 22 20 21 22 22 22 23 24 24 24 25 24 23 24 25 26 28 29 29 29 29 29 30 29 29 29 29 28
3 4 5 3 4 10 14 15 14 13 12 13 12 11 11 14 16 18 17 16 15 16 19 21 22 21 20 20 20 21 19 16 16 18 18 16 12 10 11 11 11 14 15 15 14 13 12 11 12 12 11 14 20 22 23 24 23 21 21 21 22 22 22 23 24 24 25 24 24 23 23 23 25 26 28 30 30 29 28 28 28 28 29 28 27 27
4 4 4 4 4 8 12 14 15 13 12 11 12 13 15 17 16 15 13 12 13 16 19 18 16 16 18 17 15 19 21 17 19 20 17 15 15 14 14 14 16 17 19 19 19 18 16 14 13 13 13 16 20 24 26 25 22 21 23 23 22 21 22 23 24 24 24 23 22 22 23 23 24 25 27 29 30 29 28 27 27 28 28 27 26 26
6 5 4 6 6 9 13 14 12 10 8 8 11 16 19 18 16 14 12 15 20 18 14 13 13 14 17 17 16 20 21 19 18 17 14 14 15 15 15 16 17 18 19 20 20 20 19 17 15 15 16 18 21 24 25 23 22 24 26 24 21 21 22 23 24 23 23 22 21 22 23 22 22 24 26 28 29 28 27 27 27 27 26 25 25 24
6 6 6 7 5 9 12 9 7 9 9 8 11 15 17 17 18 17 17 21 23 18 14 14 15 17 19 20 20 21 20 18 16 16 15 13 12 12 14 16 17 18 19 20 20 20 18 17 16 16 15 18 21 22 21 20 22 24 24 21 21 21 23 23 23 22 22 21 21 22 22 22 22 22 24 25 27 27 27 26 26 25 25 24 24 24
7 7 7 6 6 8 9 7 9 10 8 9 10 11 14 16 19 21 21 23 23 20 18 19 21 22 24 23 23 22 20 18 16 16 18 16 13 13 14 16 18 18 18 19 19 18 17 16 16 14 13 16 18 17 17 18 20 20 19 20 20 21 23 23 22 21 21 21 21 21 21 22 22 22 22 24 25 26 27 26 25 24 24 24 24 24
7 7 6 6 7 6 7 10 11 5 2 5 9 10 12 14 16 17 17 19 23 22 20 21 24 26 26 24 22 20 19 17 14 15 20 19 15 15 17 18 19 19 19 18 17 17 17 17 17 16 15 15 15 15 16 17 17 17 18 18 19 20 21 21 20 19 19 20 20 21 21 22 22 22 22 24 25 26 26 25 24 24 24 23 23 23
11 8 6 7 7 6 8 11 9 8 6 6 9 11 11 11 13 13 12 15 19 19 19 20 24 26 24 22 21 17 14 12 10 16 22 18 14 16 19 19 20 19 18 18 19 21 21 18 16 15 13 10 11 13 14 14 15 16 16 16 17 18 18 19 19 18 19 19 20 20 21 21 22 22 22 23 24 25 25 25 24 23 23 23 22 22
14 10 8 8 7 6 9 11 9 10 11 9 12 16 13 11 11 11 10 12 11 13 16 19 22 25 23 19 18 14 10 8 9 16 20 14 11 14 17 17 18 18 16 18 21 22 18 12 9 9 8 8 9 10 11 13 14 15 15 15 16 17 17 17 17 17 17 18 18 19 20 21 22 22 22 23 24 24 24 23 23 22 22 21 21 21
17 12 9 9 8 8 11 11 10 10 8 6 11 13 10 9 9 7 9 10 10 14 17 16 19 21 18 15 15 11 8 8 10 14 17 13 10 11 13 14 15 14 15 17 15 12 9 6 6 7 7 7 8 9 11 13 14 14 14 14 14 15 14 14 14 15 16 16 16 17 18 20 21 22 22 22 23 23 23 22 22 21 20 20 20 20
14 11 10 11 10 11 13 12 8 8 6 5 10 10 5 4 7 8 9 8 10 15 15 14 17 18 14 14 14 10 9 10 11 14 15 11 6 5 7 8 8 7 8 9 7 6 6 6 6 6 7 8 9 10 11 12 13 13 12 12 13 12 11 11 12 13 14 15 15 16 17 18 20 21 22 22 22 22 21 21 21 20 19 19 19 19
7 8 10 11 11 12 14 12 8 7 5 7 14 14 4 2 5 11 10 7 8 12 10 11 16 15 12 14 11 8 9 12 13 15 11 5 5 4 4 4 5 5 6 5 4 5 6 5 5 6 7 8 10 11 12 14 14 12 12 12 11 10 10 11 12 14 14 15 16 16 17 18 19 20 20 20 21 20 20 20 20 20 19 19 19 18
4 4 6 8 10 10 11 11 9 7 3 6 14 12 1 3 7 10 8 5 5 7 8 11 13 10 10 12 10 9 11 12 10 10 7 5 3 3 3 3 4 4 4 3 3 3 2 3 4 4 5 6 9 11 13 15 15 13 12 11 10 10 11 12 13 15 15 15 16 16 17 18 19 20 20 19 19 20 19 18 18 19 19 19 18 18
4 4 5 6 7 7 9 10 9 5 2 1 8 6 2 3 6 8 8 8 7 6 7 9 9 6 5 7 9 9 9 7 6 6 6 4 3 3 2 3 4 3 1 1 2 2 3 3 4 5 4 6 8 10 14 16 15 14 13 11 11 12 13 14 15 15 16 16 16 17 18 18 19 19 19 19 19 19 19 18 19 19 19 18 18 18
4 5 7 6 5 6 8 7 4 2 1 4 5 3 3 5 7 8 9 9 9 9 7 7 9 8 5 4 8 9 7 6 6 5 6 6 4 3 3 4 4 3 2 1 1 3 4 4 5 6 5 5 7 10 14 16 16 15 13 12 12 14 15 15 16 16 16 17 17 18 19 18 18 18 18 18 19 19 19 19 19 19 18 18 18 19
4 4 6 5 4 5 6 5 4 3 2 2 1 3 7 10 9 6 4 5 7 7 6 7 11 13 10 6 7 8 6 5 4 4 5 6 4 4 4 3 3 3 2 1 2 4 4 5 7 8 7 6 8 11 14 16 17 17 14 13 15 16 16 17 18 18 19 19 19 20 19 18 18 18 17 18 18 18 19 20 20 18 18 18 18 18
1 1 2 3 3 4 5 6 5 5 5 5 5 5 7 9 9 7 4 4 7 8 7 7 8 9 8 7 6 7 6 4 4 5 6 6 5 3 4 4 4 3 2 2 3 5 6 8 9 10 9 8 9 12 13 14 17 18 16 16 17 18 19 20 21 22 22 21 21 21 20 19 19 18 17 18 18 18 19 20 19 18 18 17 15 15
1 1 1 3 3 4 4 3 4 7 8 10 11 9 8 8 7 6 5 5 7 9 9 9 8 7 5 3 4 7 9 8 8 9 9 7 5 4 3 4 4 5 5 5 6 8 9 10 10 11 11 10 9 11 12 13 15 17 17 18 19 20 21 23 24 25 24 23 22 22 21 20 21 20 18 17 17 17 18 18 18 18 17 15 13 13
3 1 2 3 4 5 6 8 12 14 13 12 11 9 8 8 6 5 5 6 8 10 10 10 8 6 5 5 6 8 10 11 11 11 11 9 7 4 4 5 5 5 6 7 10 12 13 13 12 12 12 11 10 11 13 13 15 17 19 20 22 23 24 25 25 26 25 23 23 22 21 21 22 20 18 17 15 15 16 15 15 16 15 13 13 13
6 5 4 5 7 8 8 10 13 14 12 10 9 8 8 8 8 8 8 7 8 10 11 11 9 7 7 8 7 6 10 12 11 10 10 10 8 7 6 6 6 8 9 10 12 14 15 16 16 16 14 12 11 12 14 15 17 19 21 22 23 25 26 26 26 26 24 23 23 22 21 22 21 20 19 18 17 16 15 13 13 14 14 13 12 13
7 6 5 6 8 9 8 8 10 10 9 9 10 12 12 10 9 10 11 10 10 11 12 13 12 11 10 9 7 7 10 12 12 10 10 10 10 10 8 6 6 9 11 12 12 13 15 17 19 19 17 14 14 15 16 18 20 21 22 23 24 25 27 28 27 24 23 22 22 22 22 23 21 20 21 21 20 19 17 14 12 13 14 13 11 11
8 7 7 7 8 9 10 12 11 10 10 12 14 15 13 10 9 10 10 10 12 13 13 13 14 14 13 12 10 8 9 11 12 11 10 10 9 7 7 7 7 8 12 15 14 12 13 15 18 19 19 18 18 18 19 20 21 22 22 23 23 25 27 29 28 25 23 23 23 23 23 23 23 22 22 22 22 22 20 17 14 11 9 10 10 9
Wind_Direction
263 205 198 217 213 205 202 206 245 43 19 344 322 280 254 261 245 143 102 91 92 264 253 249 258 263 265 267 267 269 267 261 256 251 250 249 245 245 245 248 245 241 243 211 179 183 188 196 201 198 197 197 199 201 198 200 199 199 198 197 204 209 204 197 199 209 210 204 204 206 212 215 218 220 220 223 224 223 224 223 221 220 221 223 222 221
231 229 217 214 188 136 165 152 86 335 313 288 273 273 248 248 245 105 93 108 132 266 266 268 274 271 267 268 268 267 265 261 256 250 248 246 244 243 243 245 244 243 234 183 176 185 185 188 191 193 196 195 198 201 199 200 200 198 198 199 201 200 198 197 201 208 212 209 203 204 210 209 213 216 216 220 224 225 224 222 223 225 224 222 223 223
207 232 216 140 94 87 98 155 208 239 259 255 252 262 258 241 212 104 90 113 162 244 277 296 293 283 280 274 266 260 258 258 254 249 251 250 248 245 243 245 244 244 233 209 204 190 178 182 185 188 195 198 201 202 201 201 200 198 198 200 200 198 201 204 206 209 214 213 205 206 210 205 211 215 213 216 220 223 226 225 226 227 226 223 223 223
212 222 151 106 117 136 133 169 194 212 233 233 239 251 245 141 233 211 94 131 199 235 285 307 298 285 283 275 262 251 244 252 258 255 255 253 250 248 248 251 248 246 241 231 227 201 176 175 181 188 194 198 201 200 202 201 199 200 200 201 198 199 206 209 210 210 212 210 203 204 204 199 208 212 210 213 217 221 226 227 225 224 223 221 219 218
222 86 79 127 155 186 169 168 192 208 226 221 222 239 251 282 308 329 26 315 242 231 265 295 287 272 273 269 265 251 223 241 254 253 252 244 242 247 249 252 248 245 246 240 236 216 182 175 184 192 192 193 197 200 202 200 200 201 201 201 198 199 206 209 211 210 205 201 199 199 197 197 204 208 209 214 219 221 222 223 219 217 218 217 215 215
226 93 129 151 157 199 193 191 201 212 235 220 208 225 251 285 344 5 354 328 275 240 190 295 292 269 277 276 270 267 233 242 238 230 239 238 233 235 235 237 238 239 241 238 236 225 196 184 184 187 189 192 198 202 203 199 200 201 201 201 198 198 201 203 209 209 201 197 199 198 198 200 202 205 211 215 219 220 218 216 214 214 217 216 217 217
157 125 162 153 154 174 199 226 204 204 240 235 209 239 252 272 313 292 305 296 284 303 159 225 285 281 291 282 273 276 274 269 255 239 244 246 239 235 231 232 236 238 236 228 222 218 209 196 187 187 191 195 200 202 199 198 200 201 200 199 196 197 198 199 205 206 201 198 201 202 203 206 205 206 213 217 220 221 218 216 216 217 218 216 216 216
138 157 179 168 168 173 201 232 186 196 232 238 14 355 191 206 230 244 275 254 282 327 261 199 235 272 274 269 269 271 271 270 261 252 251 248 244 244 241 239 243 252 251 233 213 208 210 207 201 200 197 197 201 198 194 196 199 200 200 196 195 195 195 201 206 205 201 198 202 206 207 210 211 211 217 220 220 222 221 221 220 219 218 215 214 213
133 173 184 176 185 200 202 205 158 195 221 43 49 30 77 94 115 185 255 264 286 320 275 191 181 261 263 250 252 250 257 263 259 255 256 249 241 239 240 238 240 250 247 237 222 207 202 204 207 208 201 197 197 194 192 195 196 198 199 196 195 196 196 202 207 207 206 202 202 207 207 208 212 212 214 216 217 220 222 222 221 219 217 216 214 214
65 186 204 189 199 211 149 49 30 207 198 129 133 91 85 89 75 107 263 290 286 277 268 180 170 253 285 244 208 205 239 254 255 257 256 239 171 153 154 150 162 180 189 206 213 197 166 164 175 187 190 190 190 190 191 193 194 195 197 197 197 198 196 198 207 212 211 208 205 206 208 208 209 210 209 209 213 218 219 218 219 218 217 215 214 214
84 51 325 224 219 160 104 68 25 22 112 144 149 115 105 117 88 211 255 315 275 263 262 164 174 220 296 249 182 188 238 244 250 245 192 141 134 141 144 148 156 159 167 170 171 162 139 129 133 156 177 182 183 185 187 191 194 194 195 198 199 199 197 196 207 214 212 211 210 210 212 212 211 212 211 210 211 214 215 214 216 216 214 213 214 214
145 171 160 141 41 109 112 91 46 46 127 159 165 155 161 174 169 221 208 163 245 248 98 94 183 210 257 245 141 119 347 309 262 237 184 173 167 159 154 155 155 155 164 160 156 155 150 149 157 171 181 184 182 184 188 190 193 195 196 199 200 200 199 196 203 212 213 212 213 214 214 213 212 213 212 213 213 211 213 214 214 214 212 212 214 216
193 207 161 105 21 190 158 121 84 86 186 201 186 176 200 218 201 224 212 193 233 230 102 24 314 232 248 258 247 235 258 255 252 272 292 287 272 256 210 165 156 161 168 171 176 174 171 175 176 180 185 185 187 189 189 189 189 193 197 199 201 202 201 196 200 211 214 213 214 215 216 214 213 215 215 216 216 215 215 215 213 213 213 215 217 218
194 208 162 152 180 209 200 175 149 169 187 195 190 181 199 212 217 231 220 215 231 208 75 26 21 252 259 272 265 248 250 250 258 290 306 297 281 277 271 224 182 179 181 190 200 199 197 194 183 181 183 184 189 190 189 188 188 190 194 198 201 203 202 197 199 207 212 213 214 216 216 214 214 217 217 216 217 218 218 216 216 217 219 221 222 221
212 243 181 178 165 173 200 215 193 169 178 199 203 199 211 216 231 239 233 241 239 151 112 184 195 234 246 332 342 278 290 285 280 288 284 281 272 266 271 265 252 221 202 201 216 226 223 210 191 180 178 181 185 187 189 190 189 190 193 196 199 202 203 199 197 203 209 212 214 216 217 216 216 218 218 216 216 217 219 220 222 224 225 226 226 222
221 243 163 153 143 166 186 217 196 165 176 200 204 217 230 235 244 253 298 287 299 349 206 193 235 246 259 309 297 278 281 269 255 242 234 251 249 231 260 257 248 239 218 207 220 233 233 212 193 182 177 178 181 185 190 192 191 191 192 195 200 202 204 203 199 200 206 210 214 219 221 220 217 217 217 218 218 219 223 227 230 231 230 228 226 222
220 248 125 120 150 170 183 208 181 187 188 178 186 210 224 13 285 253 218 93 68 282 250 209 254 271 286 292 273 251 255 255 253 252 245 245 226 202 240 248 229 217 218 221 223 228 223 195 184 185 182 179 181 185 191 194 193 193 192 194 199 201 204 206 203 200 203 208 214 220 222 221 220 220 219 220 222 225 230 233 233 233 230 226 221 219
219 258 131 168 179 162 6 356 137 352 13 160 192 195 114 44 335 254 247 231 223 251 252 228 250 265 275 279 258 207 237 241 246 258 258 256 244 221 232 239 201 173 206 235 223 209 201 188 184 187 186 184 185 186 191 195 194 195 195 196 197 199 201 204 204 202 203 206 212 217 219 220 221 223 224 225 227 230 232 233 232 231 229 224 220 220
204 232 216 203 208 124 86 220 195 124 54 34 286 193 126 222 222 210 225 239 237 245 255 246 251 255 246 254 267 262 259 260 261 264 263 262 257 248 250 243 161 156 194 231 218 196 185 188 188 182 180 183 187 188 191 194 194 196 198 198 198 199 200 202 204 203 204 205 211 216 220 220 222 224 227 229 230 231 232 233 233 232 230 226 224 225
181 222 222 29 332 128 134 202 206 173 137 22 308 239 199 252 234 214 211 219 237 246 254 255 255 249 239 248 262 267 269 274 276 277 274 273 269 264 268 277 124 150 187 215 216 196 173 177 178 172 178 182 184 188 190 192 195 197 198 198 198 200 201 203 204 203 203 205 210 216 217 218 221 225 228 230 231 231 232 233 234 234 231 228 230 231
178 215 221 140 109 183 180 203 203 185 170 181 219 211 195 202 249 281 244 222 234 245 248 255 258 257 255 254 259 267 276 280 282 287 280 279 279 273 281 346 45 165 207 219 211 184 158 154 155 161 175 178 180 187 189 193 198 197 198 199 197 198 200 203 205 204 204 204 207 212 215 217 220 223 226 229 231 230 231 234 234 233 232 232 233 232
191 206 214 171 179 209 207 199 201 199 187 189 200 203 205 200 185 232 237 213 218 244 252 261 267 269 267 264 267 273 280 287 300 313 296 285 280 278 294 45 279 261 245 230 197 160 141 137 146 162 174 174 180 191 195 198 199 199 200 199 196 196 201 204 206 206 206 205 206 210 216 219 220 221 223 225 226 226 227 231 233 232 232 234 234 232
198 215 222 210 202 203 171 105 88 339 253 231 223 215 215 207 196 216 224 196 190 210 263 277 270 272 269 263 270 271 275 315 350 349 296 280 280 289 315 320 285 275 263 234 130 114 120 129 143 163 180 185 189 198 202 204 205 203 202 200 196 197 200 204 206 207 207 208 209 211 215 219 220 221 224 224 223 223 224 228 231 232 233 233 233 231
154 209 225 229 222 172 119 109 88 52 299 254 244 223 219 221 217 225 233 235 210 194 210 241 243 261 268 252 230 258 91 58 286 247 257 272 290 298 296 297 304 294 287 291 232 183 149 144 151 169 191 196 200 205 206 209 210 208 205 202 197 197 199 201 202 205 207 210 213 213 215 220 222 222 223 224 223 223 225 228 230 231 231 231 230 229
164 202 212 223 229 205 181 183 173 157 194 230 234 217 217 227 226 227 83 258 247 225 226 238 240 255 263 182 121 177 157 208 234 215 218 253 273 283 294 309 311 308 309 302 277 243 201 184 182 194 203 201 202 206 207 211 213 211 210 204 197 195 197 199 200 203 206 209 213 215 218 222 223 222 222 223 223 224 226 228 229 230 230 228 228 228
181 210 196 206 225 216 207 211 203 187 180 202 226 218 215 215 210 210 207 216 235 237 235 240 245 257 265 266 248 211 187 219 243 233 221 231 250 271 293 311 318 330 323 299 282 263 241 228 212 208 213 209 206 206 207 211 213 216 216 207 198 196 197 200 202 204 208 211 213 217 220 223 223 222 220 221 223 225 226 226 228 230 229 228 228 227
160 251 216 220 233 232 239 287 75 140 166 189 210 211 214 214 208 211 221 222 229 238 242 240 242 255 265 267 264 255 236 233 249 256 249 229 218 241 262 289 312 308 284 276 270 259 249 240 228 219 219 217 210 207 210 211 212 217 217 207 200 199 200 201 203 205 209 212 212 215 220 221 222 222 220 219 222 225 225 224 225 227 229 228 226 225
128 240 230 232 244 251 263 286 77 123 192 210 214 210 211 214 210 209 222 228 229 237 245 243 239 248 260 266 267 268 271 272 267 267 268 257 231 201 199 266 283 263 251 244 243 248 248 242 235 224 219 216 212 212 216 216 215 219 217 208 201 202 202 201 202 205 209 210 211 214 217 218 219 221 221 220 221 223 223 222 223 225 228 228 226 227
162 243 242 245 259 264 271 276 272 276 268 244 239 234 219 209 203 207 224 231 229 233 248 256 255 255 259 264 268 272 277 278 276 280 281 271 248 200 196 240 251 253 251 239 230 233 237 238 235 225 218 216 215 217 220 220 220 221 218 209 204 206 206 203 203 206 209 211 214 215 215 216 217 218 219 218 218 220 223 222 222 223 226 228 227 228
162 248 245 253 273 274 275 274 269 270 269 260 255 252 246 230 212 209 221 228 229 236 248 257 261 261 259 262 271 279 280 278 281 285 281 269 245 211 222 236 237 244 248 241 232 225 226 232 234 230 220 215 217 219 219 218 217 219 219 212 206 207 208 206 206 207 210 214 217 217 215 215 216 216 217 216 215 218 221 222 221 222 225 227 227 227
183 209 208 202 265 269 267 268 263 258 256 258 257 252 252 250 235 222 223 226 232 240 243 247 255 262 262 263 271 278 277 276 277 274 271 265 251 237 240 243 246 252 253 251 252 248 238 234 234 232 222 217 222 223 222 219 217 218 220 215 208 206 207 207 207 208 211 215 218 216 214 213 214 215 215 215 215 217 219 220 220 221 222 224 225 225
186 204 180 162 221 252 249 250 253 252 249 250 255 248 238 238 238 233 229 228 229 234 239 243 248 256 263 266 268 271 272 272 270 270 269 263 255 252 253 252 252 257 258 258 260 260 256 248 240 235 228 224 225 224 222 220 217 218 220 216 210 207 207 207 208 209 210 213 215 214 212 213 214 214 213 214 215 216 217 218 217 218 219 221 223 223
184 205 198 189 217 249 246 241 242 247 247 239 238 236 229 228 233 237 240 238 233 232 235 241 241 247 261 269 267 264 265 266 267 268 266 261 260 261 260 256 254 255 258 259 258 256 256 253 248 244 236 226 224 225 226 223 219 219 220 217 210 206 205 206 208 208 207 209 211 210 210 212 212 210 210 212 213 214 214 213 213 215 217 219 221 221
186 207 223 215 224 251 252 248 237 235 237 233 229 227 224 223 225 227 232 235 234 233 234 243 251 255 259 263 262 262 264 265 266 268 268 267 269 270 264 260 257 256 257 258 257 257 258 259 261 258 241 227 226 230 231 228 223 221 220 215 208 204 204 204 204 204 204 204 206 207 207 208 207 206 207 209 210 209 209 209 210 213 216 217 216 214
185 203 220 223 232 253 263 261 245 233 225 232 238 228 216 216 219 223 230 235 237 239 238 241 248 251 251 254 258 260 264 266 268 273 273 271 270 270 267 262 259 258 259 261 261 261 261 261 263 258 238 231 232 229 223 219 217 215 212 208 204 201 201 202 201 200 200 199 200 202 203 203 203 202 203 204 205 205 206 208 209 210 213 213 213 212
201 205 216 227 232 247 256 246 244 252 235 233 243 232 213 211 218 227 237 241 240 239 238 239 243 246 249 252 254 257 263 270 277 274 269 267 266 265 264 263 262 260 259 261 263 263 263 262 260 254 245 239 231 220 217 216 211 206 204 202 200 197 198 197 196 195 195 195 197 198 199 200 200 198 198 199 200 201 203 205 205 207 209 209 210 212
224 218 218 228 224 225 244 246 253 282 281 246 239 234 218 209 214 222 236 244 240 236 235 238 243 247 249 251 255 259 266 274 280 270 264 260 256 257 259 260 262 261 259 261 263 264 266 266 261 259 255 241 224 218 219 215 207 202 197 193 192 192 192 192 192 192 191 192 193 196 198 200 197 194 194 195 195 197 200 201 202 205 206 205 205 207
228 224 216 225 219 214 239 247 249 259 254 237 239 242 235 230 227 223 235 248 247 240 233 232 240 246 247 250 256 261 265 265 263 266 268 262 246 250 257 258 259 259 259 261 263 266 268 265 257 255 249 233 224 223 217 211 205 197 189 186 187 186 187 188 189 189 189 189 192 194 197 198 196 193 191 192 193 195 197 198 200 203 204 204 204 204
223 222 218 229 234 223 233 241 240 245 248 245 253 254 248 246 242 236 248 252 245 242 239 235 241 246 247 251 255 254 251 251 252 261 272 274 259 248 251 256 260 260 258 259 265 273 271 256 244 241 232 220 217 216 213 208 200 190 183 182 181 180 180 182 182 183 185 186 188 190 192 194 193 191 190 190 192 194 195 196 199 202 203 203 204 204
220 223 220 228 232 229 236 244 244 248 261 273 271 271 263 225 221 229 245 245 235 241 244 240 243 246 244 249 251 242 235 243 252 261 271 286 295 272 260 269 283 292 283 274 273 276 265 248 236 222 211 209 210 209 206 198 186 179 176 173 173 173 172 169 171 175 178 179 182 186 189 191 191 190 190 190 190 191 192 193 196 198 197 198 200 202
223 223 223 228 229 228 237 244 247 254 261 264 265 269 277 123 201 228 241 248 246 249 250 246 247 245 237 241 247 241 237 240 248 260 277 334 9 345 336 342 341 342 337 323 291 266 254 240 225 211 202 204 202 196 192 183 172 166 165 163 162 164 161 159 162 165 166 171 177 182 184 186 187 187 187 187 185 183 185 191 194 193 192 193 194 194
228 221 225 231 232 233 236 242 252 256 221 234 259 266 243 157 230 243 256 283 281 263 256 255 257 248 228 231 237 238 242 247 255 275 313 6 359 318 343 352 324 315 320 315 288 255 220 196 190 180 178 189 191 186 182 174 163 158 159 156 151 153 154 155 159 161 164 168 172 175 177 178 181 181 180 182 182 179 179 185 189 186 185 186 185 184
213 222 234 224 223 237 238 237 247 246 157 294 286 281 150 198 275 304 319 325 321 297 275 269 270 265 237 238 247 249 255 274 302 322 333 327 301 310 313 288 286 291 287 282 258 206 169 144 140 142 156 172 176 177 176 168 158 153 152 146 145 154 155 156 160 162 164 166 165 166 169 171 174 176 176 177 178 175 173 174 175 174 176 178 177 175
199 221 249 236 213 229 236 232 228 193 82 12 342 300 272 299 323 336 330 322 323 324 323 318 313 320 328 289 270 273 283 300 312 320 315 303 290 275 264 263 269 267 246 179 169 175 165 147 137 134 139 154 166 171 173 168 157 148 145 144 151 159 158 157 160 159 157 158 157 158 162 165 167 170 170 170 170 166 163 164 164 164 167 170 169 169
198 220 269 264 224 234 252 262 289 319 327 346 350 277 293 306 311 311 308 304 306 317 330 322 315 323 334 321 284 278 283 290 289 282 285 288 278 248 237 243 253 254 247 210 181 177 172 161 152 144 138 148 164 168 171 172 162 148 146 153 161 162 158 155 155 153 150 151 152 154 157 158 160 162 163 164 164 161 159 158 156 156 161 164 165 168
1 51 312 291 288 296 265 243 267 314 323 317 313 295 287 290 292 294 299 289 284 290 293 286 290 304 319 328 315 299 296 296 284 277 279 279 269 240 220 227 231 218 204 196 188 183 176 164 158 152 145 147 161 166 172 177 168 156 154 160 162 160 157 154 152 149 148 148 150 152 152 150 151 154 155 157 159 160 161 158 154 155 160 161 162 167
308 104 259 277 302 306 274 254 301 316 312 313 315 306 287 277 274 275 276 274 273 274 272 270 270 270 269 271 272 277 285 288 285 292 300 293 270 240 216 222 221 210 205 198 187 182 174 163 160 158 151 150 161 168 170 172 170 164 161 159 159 157 156 153 150 148 147 147 148 149 148 146 146 146 145 148 151 155 158 158 157 159 160 157 157 161
275 308 295 276 265 260 273 295 302 296 292 296 298 297 300 302 295 273 252 251 260 267 269 270 269 267 266 261 253 259 273 279 279 285 291 289 281 258 219 213 209 201 200 197 190 183 175 169 168 163 156 156 162 168 168 167 167 166 161 157 157 157 153 151 150 148 146 145 145 146 145 146 146 142 138 137 139 144 149 153 157 160 159 158 161 161
291 302 298 288 282 274 275 286 287 283 282 280 276 284 301 308 306 297 281 264 260 267 276 280 277 269 264 264 259 258 268 273 273 273 273 274 274 261 237 220 206 197 195 194 193 188 179 172 169 163 159 161 163 165 167 163 162 163 160 158 158 157 152 150 149 147 144 143 143 143 144 145 144 141 137 136 134 134 137 144 152 157 156 157 163 167
263 260 255 269 275 272 273 279 283 284 286 285 286 293 297 295 297 298 294 289 284 283 289 295 293 285 273 264 258 257 265 273 276 272 265 262 260 253 239 216 198 197 195 189 189 193 187 176 169 164 161 161 164 165 163 159 158 161 161 161 162 160 155 150 147 144 144 145 145 146 146 145 143 142 142 141 139 134 131 133 145 157 160 160 163 171
243 245 247 253 257 263 274 280 281 282 284 286 286 288 288 288 292 290 286 287 291 293 295 297 294 290 285 280 272 261 260 272 282 283 276 270 264 251 228 207 195 194 189 181 181 190 190 178 170 166 162 161 162 164 163 160 159 161 163 165 166 165 159 154 149 147 148 150 150 150 150 148 147 147 147 146 144 139 131 123 120 128 146 156 159 164